Williamstown, MA

7:50 AM EDT on August 28, 2016 (GMT -0400)
Harriman And West

Weather History for KAQW - October, 2012

Change the Weather History Date:

Tuesday, October 23, 2012

  Actual Average Record
Temperature  
Mean Temperature 48 °F -  
Max Temperature 60 °F 54 °F 73 °F (2007)
Min Temperature 37 °F 34 °F 24 °F (2000)
Degree Days  
Heating Degree Days 16    
Moisture  
Dew Point 40 °F    
Average Humidity 72    
Maximum Humidity 96    
Minimum Humidity 51    
Precipitation  
Precipitation 0.00 in - - ()
Sea Level Pressure  
Sea Level Pressure 30.11 in    
Wind  
Wind Speed 1 mph (West)    
Max Wind Speed 6 mph    
Max Gust Speed -    
Visibility 9 miles    
Events      
Averages and records for this station are not official NWS values.
T = Trace of Precipitation, MM = Missing Value Source: NWS Daily Summary

Daily Weather History Graph

Daily Weather History Graph

Search for Another Location

Airport or City:

Trip Planner

Search our weather history database for the weather conditions in past years. The results will help you decide how hot, cold, wet, or windy it might be!

Date:

Astronomy

Oct. 23, 2012 Rise Set
Actual Time 7:16 AM EDT 5:57 PM EDT
Civil Twilight 6:47 AM EDT 6:26 PM EDT
Nautical Twilight 6:14 AM EDT 6:58 PM EDT
Astronomical Twilight 5:41 AM EDT 7:31 PM EDT
Moon 2:46 PM EDT (10/23) 12:57 AM EDT (10/23)
Length of Visible Light 11h 38m
Length of Day
10h 41m
Waxing Gibbous, 66% of the Moon is Illuminated
Oct 23
Waxing Gibbous
Oct 29
Full
Nov 6
Last Quarter
Nov 13
New
Nov 20
First Quarter

Hourly Weather History & Observations

Time (EDT) Temp. Dew Point Humidity Pressure Visibility Wind Dir Wind Speed Gust Speed Precip Events Conditions
12:52 AM 42.1 °F 37.9 °F 85% 30.07 in 10.0 mi Calm Calm - N/A   Clear
3:52 AM 37.9 °F 36.0 °F 93% 30.09 in 9.0 mi Calm Calm - N/A   Clear
4:52 AM 37.9 °F 36.0 °F 93% 30.10 in 9.0 mi Calm Calm - N/A   Clear
5:52 AM 37.0 °F 36.0 °F 96% 30.12 in 7.0 mi Calm Calm - N/A   Clear
6:52 AM 37.0 °F 35.1 °F 93% 30.13 in 7.0 mi Calm Calm - N/A   Clear
7:52 AM 37.9 °F 36.0 °F 93% 30.14 in 5.0 mi Calm Calm - N/A   Clear
8:52 AM 41.0 °F 39.0 °F 93% 30.16 in 7.0 mi Calm Calm - N/A   Clear
9:52 AM 46.0 °F 41.0 °F 83% 30.16 in 10.0 mi Calm Calm - N/A   Clear
11:52 AM 54.0 °F 41.0 °F 62% 30.13 in 10.0 mi Calm Calm - N/A   Mostly Cloudy
12:52 PM 57.0 °F 39.9 °F 53% 30.10 in 10.0 mi Variable 3.5 mph - N/A   Partly Cloudy
1:52 PM 57.9 °F 41.0 °F 53% 30.08 in 10.0 mi NW 3.5 mph - N/A   Clear
2:52 PM 59.0 °F 41.0 °F 51% 30.07 in 10.0 mi Calm Calm - N/A   Scattered Clouds
3:52 PM 60.1 °F 42.1 °F 51% 30.07 in 10.0 mi Calm Calm - N/A   Partly Cloudy
4:52 PM 57.9 °F 41.0 °F 53% 30.07 in 10.0 mi WNW 3.5 mph - N/A   Overcast
5:52 PM 55.9 °F 42.1 °F 60% 30.08 in 10.0 mi West 3.5 mph - N/A   Overcast
6:52 PM 55.0 °F 42.1 °F 62% 30.10 in 10.0 mi Calm Calm - N/A   Overcast
7:52 PM 54.0 °F 42.1 °F 64% 30.10 in 10.0 mi West 4.6 mph - N/A   Overcast
8:52 PM 54.0 °F 43.0 °F 66% 30.12 in 10.0 mi WSW 5.8 mph - N/A   Overcast
9:52 PM 53.1 °F 43.0 °F 69% 30.12 in 10.0 mi SW 4.6 mph - 0.00 in   Overcast
10:52 PM 53.1 °F 45.0 °F 74% 30.13 in 10.0 mi SW 3.5 mph - N/A   Overcast
11:52 PM 53.1 °F 44.1 °F 71% 30.12 in 10.0 mi Calm Calm - N/A   Overcast